[Show "Revision History"] [Show "General Page Infos"] [Show "Page hits and edits"]

Revision History

Showing page edit history entries from 1 to 69 out of 69 entries total. (5 | 10 | 25 | 50 | 100 | 200 items per page)

# Date Size Editor Comment Action
69 2012-07-16 10:48:24 29336 to previous JukkaZitting Report submitted. view
68 2012-07-16 10:12:08 30045 to previous JukkaZitting Add overall summary of Incubator status view
67 2012-07-14 22:02:24 29303 to previous JukkaZitting Lucene.Net is preparing for graduation. Plus minor formatting changes. view
66 2012-07-14 21:48:07 29200 to previous JukkaZitting Mention the Blur proposal and the need for more efficient interaction between graduating projects and infra view
65 2012-07-14 21:39:12 28841 to previous JukkaZitting Note Dave's push to clarify the project name clearance bits view
64 2012-07-14 21:14:28 28683 to previous JukkaZitting New and retiring projects, some general discussions view
63 2012-07-14 20:05:39 27835 to previous JukkaZitting Add basic info for Kitty. They're voting on retiring the project. view
62 2012-07-14 19:55:58 27524 to previous JukkaZitting List incubating releases since the June report view
61 2012-07-11 23:35:24 26996 to previous JukkaZitting Low activity in DeviceMap view
60 2012-07-11 23:30:14 27003 to previous JukkaZitting Mesos has their first release out, but still needs more committers view
59 2012-07-11 23:07:10 26996 to previous JukkaZitting ODF Toolkit has seen only five commits since their last report. The lists are more active though, so might be a temporary thing. view
58 2012-07-11 22:55:26 26983 to previous JukkaZitting Oozie looks ready to go view
57 2012-07-11 22:43:06 26976 to previous JukkaZitting Tashi remains low on diversity, though activity is looking better than in previous years view
56 2012-07-11 22:17:55 26969 to previous JukkaZitting VXQuery activity has been picking up nicely, so the next thing they need is a release view
55 2012-07-11 20:48:58 26960 to previous JukkaZitting Unify formatting of podling reports. view
54 2012-07-11 06:19:07 26580 to previous EricYang   view
53 2012-07-11 06:16:53 26613 to previous EricYang   view
52 2012-07-10 20:25:40 25884 to previous JukkaZitting Practically no activity in Kitty view
51 2012-07-10 19:58:27 25877 to previous JukkaZitting JSPWiki is still working on their first release view
50 2012-07-10 18:44:50 25868 to previous JukkaZitting Dave Fisher on EasyAnt: "There has been very little activity all this year." Discussion about graduating into Ant. view
49 2012-07-10 16:16:19 25859 to previous JukkaZitting Benson: "DirectMemory lacks only a release to be green across the launch control board." Now they also have a release. view
48 2012-07-10 09:39:37 25845 to previous JukkaZitting Mark Chukwa as low diversity, as there's only one active committer at the moment. Sounds like the community is working on fixing that. See discussion on general@/chukwa-dev@. view
47 2012-07-10 09:33:53 25840 to previous JukkaZitting Any23 is just about to release, then apparently pretty close to graduation view
46 2012-07-10 07:27:11 25833 to previous JukkaZitting Celix has gained some activity, but is still lacking a release view
45 2012-07-10 06:25:53 25829 to previous JukkaZitting AWF is about to retire view
44 2012-07-10 06:22:45 25683 to previous JukkaZitting Matt Franklin: "Report and community look great. I look forward to a future graduation VOTE :)" view
43 2012-07-09 15:14:58 25679 to previous TomWhite2 Signed off Mesos report. view
42 2012-07-09 13:46:43 25670 to previous KevanMiller   view
41 2012-07-09 13:30:19 25663 to previous BertrandDelacretaz   view
40 2012-07-09 08:46:23 25693 to previous OlivierLamy   view
39 2012-07-07 20:24:25 25555 to previous robweir   view
38 2012-07-06 21:59:10 25487 to previous AlanCabrera   view
37 2012-07-06 21:54:03 25474 to previous OlivierLamy   view
36 2012-07-06 15:11:31 24229 to previous BertrandDelacretaz   view
35 2012-07-06 12:21:38 23521 to previous JukkaZitting AWF report based on the dev@ post in http://mail-archives.apache.org/mod_mbox/incubator-awf-dev/201207.mbox/%3CCAL77sbxi%2B7j6YF-B-7%2B1CzoP6dbnN2FQLhCH%3DJxwnA0ZPhFiqA%40mail.gmail.com%3E view
34 2012-07-06 04:30:37 23189 to previous StefanBodewig   view
33 2012-07-06 03:19:59 23169 to previous MichaelStroucken Add tashi report view
32 2012-07-05 21:39:31 20012 to previous JuanPabloSantos   view
31 2012-07-05 18:42:39 19437 to previous TomWhite2 Added report for Mesos written by Benjamin Hindman view
30 2012-07-05 18:41:00 18553 to previous TomWhite2 Signed Crunch report view
29 2012-07-05 18:22:33 18543 to previous JoshWills   view
28 2012-07-05 16:54:46 18523 to previous PatrickHunt   view
27 2012-07-05 16:26:57 18505 to previous JoshWills   view
26 2012-07-05 16:20:14 17099 to previous JukkaZitting Allura status based on Ross' message on general@ view
25 2012-07-05 16:08:15 16790 to previous AlanGates   view
24 2012-07-04 20:39:01 15554 to previous LewisJohnMcgibbney   view
23 2012-07-04 20:37:30 15560 to previous LewisJohnMcgibbney Revert to revision 21. view
22 2012-07-04 20:00:56 8312 to previous LewisJohnMcgibbney   view
21 2012-07-04 04:54:51 15560 to previous MarcelOffermans Signed off Celix view
20 2012-07-03 21:17:06 15554 to previous JoelKoshy   view
19 2012-07-03 21:10:27 15433 to previous JoelKoshy   view
18 2012-07-03 21:08:57 15443 to previous JoelKoshy   view
17 2012-07-03 18:52:14 15299 to previous TillWestmann add Report for VXQuery view
16 2012-07-03 11:57:48 13754 to previous LewisJohnMcgibbney   view
15 2012-07-03 09:23:14 13752 to previous NicolasLalevée   view
14 2012-07-03 08:13:40 13144 to previous AlexanderBroekhuis   view
13 2012-07-03 04:58:31 11474 to previous JoelKoshy   view
12 2012-07-03 04:24:43 9486 to previous JamesMasanz   view
11 2012-07-02 21:17:36 9303 to previous ChrisMattmann - add stub cTAKES report. view
10 2012-07-02 20:16:37 8184 to previous ChrisMattmann Sign off on Any23 and add a few items view
9 2012-07-02 18:22:45 7909 to previous LewisJohnMcgibbney   view
8 2012-07-01 20:45:43 6494 to previous ke4qqq CloudStack report view
7 2012-06-29 05:43:19 5518 to previous EricYang   view
6 2012-06-28 22:42:15 4550 to previous JukkaZitting Assign shepherds view
5 2012-06-28 18:37:51 4171 to previous JukkaZitting cTAKES is also just starting view
4 2012-06-28 18:36:41 4163 to previous JukkaZitting Add podling report placeholders based on http://incubator.apache.org/report-groups.txt view
3 2012-06-28 14:10:17 2791 to previous robweir draft of ODF Toolkit Report view
2 2012-06-27 23:31:53 1670 to previous JukkaZitting Add summary template view
1 2012-06-27 23:30:04 1011 JukkaZitting Copy report template view